Regional Weather Roundup
Issued by NWS State College, PA

Home | Current Version | Previous Version | Text Only | Print | Product List | Glossary On
Versions: 1 2 3 4 5 6 7 8 9 10 11 12 13 14 15 16 17 18 19 20 21 22 23 24 25 26 27 28 29 30 31 32 33 34 35 36 37 38 39 40 41 42 43 44 45 46 47 48 49 50
000
ASUS41 KCTP 042103
RWRCTP

REGIONAL WEATHER ROUNDUP
NATIONAL WEATHER SERVICE STATE COLLEGE PA
500 PM EDT WED MAY 04 2016

Note: "fair" indicates few or no clouds below 12,000 feet with no
significant weather and/or obstructions to visibility.

* = STATION THAT DOES NOT REPORT PRECIPITATION /E.G. RAIN...SNOW...ETC/
    THUNDER OR FOG.

PAZ002>004-007>009-013>016-020>023-029>032-042200-
WESTERN PENNSYLVANIA

CITY           SKY/WX    TMP DP  RH WIND       PRES   REMARKS
ERIE           SUNNY     61  42  49 NE13      29.63S
MEADVILLE      CLOUDY    59  34  39 SW5       29.61S
FRANKLIN*      CLOUDY    61  34  36 S6        29.64S
NEW CASTLE     MOCLDY    63  42  46 VRB3      29.62F
BEAVER COUNTY  CLOUDY    59  45  58 SE8       29.62F
BUTLER*        CLOUDY    57  39  51 W9        29.65R
PITTSBURGH INT LGT RAIN  56  48  74 SE6       29.62F
PITTSBURGH     LGT RAIN  54  47  77 S13       29.64R
INDIANA*       PTSUNNY   63  45  51 CALM      29.65F
LATROBE        PTSUNNY   61  45  55 S7        29.63S
WASHINGTON CO* CLOUDY    52  48  87 E5        29.64F
$$

PAZ004>006-010>012-017>019-024>028-033>037-041-042-045-046-049>053-042200-
CENTRAL PENNSYLVANIA

CITY           SKY/WX    TMP DP  RH WIND       PRES   REMARKS
BRADFORD       CLOUDY    57  38  48 S6        29.64S
DUBOIS         CLOUDY    58  40  51 SE7       29.63S
CLEARFIELD     CLOUDY    57  47  69 E8        29.65F
JOHNSTOWN      CLOUDY    55  41  59 VRB3      29.63S
ALTOONA        PTSUNNY   57  48  72 N8        29.64F
STATE COLLEGE  LGT RAIN  52  50  93 N6        29.66F
WILLIAMSPORT   PTSUNNY   60  49  66 E10       29.66S
SELINSGROVE    CLOUDY    57  50  77 E8        29.68S
FT INDIANTOWN  CLOUDY    54  51  90 E7        29.68S
CAPITAL CITY   CLOUDY    57  49  74 E8        29.67F
HARRISBURG     CLOUDY    57  49  74 E8        29.66F
YORK           CLOUDY    54  50  86 E9        29.66F
$$

PAZ038>040-043-044-047-048-054-055-060>062-067>071-042200-
EASTERN PENNSYLVANIA

CITY           SKY/WX    TMP DP  RH WIND       PRES   REMARKS
SCRANTON       LGT RAIN  51  48  89 E9        29.69F FOG
MOUNT POCONO   CLOUDY    43  43 100 E9        29.69S FOG
ALLENTOWN      CLOUDY    53  47  79 E9        29.71R
QUAKERTOWN*    CLOUDY    50  48  93 E7        29.71R
READING        CLOUDY    54  47  77 E10       29.68S
LANCASTER      CLOUDY    54  49  83 E8        29.67F
COATESVILLE    CLOUDY    52  52 100 MISG      29.70S FOG
POTTSTOWN      CLOUDY    51  48  89 E6        29.71S
BLUE BELL      CLOUDY    48  46  93 CALM      29.70R
DOYLESTOWN     CLOUDY    48  47  96 NE7       29.70R
WILLOW GROVE   NOT AVBL
NORTH PHILA    CLOUDY    54  47  77 E15       29.71S
PHILADELPHIA   CLOUDY    53  45  74 NE9       29.70S
$$




USA.gov is the U.S. government's official web portal to all federal, state and local government web resources and services.